Weather in Bert-Dag

Russia / Tyva Republic     50°37′31″N   94°47′31″E
temp.,
°C
wind,
m/s
gust,
m/s
humid.,
%
clouds,
%
prec.,
mm/h
press.,
hPa
HPBL,
m
5 march, fri
fri501:00−18s12684 0.0 103321
04:00−18s23740 0.0 103321
07:00−18ssw23700 0.0 103237
10:00−13ssw586523 0.0 1030276
13:00−11s476449 0.0 1028336
16:00−12ssw5974100 0.0 1025294
19:00−13sw4774100 0.0 1028147
22:00−14sw3490100 0.1 103072
6 march, sat
sat601:00−17s128473 0.1 103420
04:00−18se01770 0.0 103520
07:00−18s13860 0.0 103621
10:00−12ssw45810 0.0 1034161
13:00−10ssw568310 0.0 1031247
16:00−10ssw467985 0.0 1027230
19:00−14ssw247776 0.0 102839
22:00−15ssw348430 0.0 102842
7 march, sun
sun701:00−15ssw239116 0.0 102844
04:00−16ssw339057 0.0 102744
07:00−16ssw238553 0.0 102835
10:00−12ssw458338 0.0 1027145
13:00−11ssw458159 0.0 1026199
16:00−11ssw348170 0.0 1025153
19:00−14ssw237386 0.0 102721
22:00−15ssw2276100 0.0 102921
8 march, mon
mon801:00−16ssw127666 0.0 103121
04:00−16sse126930 0.0 103120
07:00−16s237118 0.0 103221
10:00−11ssw34820 0.0 1030116
13:00−9ssw45820 0.0 1028179
16:00−9ssw34790 0.0 1025129
19:00−13ssw23650 0.0 102723
22:00−14ssw23700 0.0 102722
9 march, tue
tue901:00−15ssw23770 0.0 102726
04:00−15ssw23774 0.0 102722
07:00−14sw227733 0.0 103022
10:00−10ssw2178100 0.0 103190
13:00−7s2184100 0.0 1030185
16:00−8ssw228771 0.0 1028167
19:00−14s118370 0.0 103021
22:00−13ssw12710 0.0 103021